{"data":{"norad_id":64424,"intl_designator":"2025-129N","name":"STARLINK-34468","alt_names":[],"object_type":"PAYLOAD","status":"ACTIVE","operator":null,"country":"US","launch_date":"2025-06-17","launch_site_code":"AFWTR","launch_vehicle":null,"mission":null,"orbit_class":"UNKNOWN","rcs_meters":null,"size_class":null,"mass_kg":null,"dimensions":null,"purposes":["comms"],"wikipedia_slug":null,"has_3d_model":false,"image_url":null,"decayed_at":null,"tle_current":{"epoch":"2026-09-20T11:39:02.440224Z","epoch_age_seconds":135721,"freshness":"FRESH","line1":"1 64424U 25129N   26263.48544491  .00007660  00000+0  27056-3 0  9998","line2":"2 64424  70.0004 301.0009 0003571 267.1284  92.9483 15.29587752 70522","mean_motion":15.29587752,"eccentricity":0.0003571,"inclination_deg":70.0004,"raan_deg":301.0009,"arg_perigee_deg":267.1284,"mean_anomaly_deg":92.9483,"bstar":0.00027056,"rev_number":7052,"period_min":94.143013247664,"perigee_km":474.59575628432,"apogee_km":479.49172636978,"semimajor_km":6855.1807413271,"source":"CELESTRAK","updated_at":"2026-09-21T09:00:35.348260Z"}}}